Weather History for South Hill, VA

Change the Weather History Date:

Tuesday, December 25, 2012

  Actual Average (KEMV) Record (KEMV)
Temperature  
Mean Temperature 50 °F -  
Max Temperature 57 °F 50 °F 68 °F (1982)
Min Temperature 44 °F 25 °F 0 °F (1989)
Degree Days  
Heating Degree Days 14    
Moisture  
Dew Point 43 °F    
Average Humidity 87    
Maximum Humidity 100    
Minimum Humidity 63    
Precipitation  
Precipitation 0.00 in - - ()
Sea Level Pressure  
Sea Level Pressure 30.11 in    
Wind  
Wind Speed 2 mph (NW)    
Max Wind Speed 7 mph    
Max Gust Speed -    
Visibility 10 miles    
Events      
Averages and records for this station are not official NWS values.
T = Trace of Precipitation, MM = Missing Value Source: NWS Daily Summary

Daily Weather History Graph

Daily Weather History Graph

Search for Another Location

Airport:

Trip Planner

Search our weather history database for the weather conditions in past years. The results will help you decide how hot, cold, wet, or windy it might be!

Date:

Astronomy

Dec. 25, 2012 Rise Set
Actual Time 7:22 AM EST 5:02 PM EST
Civil Twilight 6:53 AM EST 5:31 PM EST
Nautical Twilight 6:21 AM EST 6:03 PM EST
Astronomical Twilight 5:50 AM EST 6:35 PM EST
Moon 3:08 PM EST (12/25) 4:54 AM EST (12/25)
Length of Visible Light 10h 37m
Length of Day
9h 39m
Waxing Gibbous, 93% of the Moon is Illuminated
Dec 25
Waxing Gibbous
Dec 28
Full
Jan 4
Last Quarter
Jan 11
New
Jan 18
First Quarter

Hourly Weather History & Observations

Time (EST) Temp. Windchill Dew Point Humidity Pressure Visibility Wind Dir Wind Speed Gust Speed Precip Events Conditions
12:17 AM 48.2 °F - 44.6 °F 87% 29.96 in 10.0 mi WSW 3.5 mph - N/A   Overcast
1:17 AM 48.2 °F - 44.6 °F 87% 29.97 in 10.0 mi WSW 4.6 mph - N/A   Overcast
1:39 AM 46.4 °F - 44.6 °F 93% 29.98 in 10.0 mi Calm Calm - N/A   Overcast
2:35 AM 46.4 °F - 44.6 °F 93% 29.99 in 10.0 mi Calm Calm - N/A   Overcast
2:55 AM 46.4 °F 43.5 °F 44.6 °F 93% 30.00 in 10.0 mi West 5.8 mph - N/A   Overcast
3:15 AM 46.4 °F - 44.6 °F 93% 30.01 in 10.0 mi Calm Calm - N/A   Overcast
3:35 AM 46.4 °F - 44.6 °F 93% 30.01 in 10.0 mi Calm Calm - N/A   Overcast
3:55 AM 46.4 °F 45.2 °F 44.6 °F 93% 30.01 in 10.0 mi West 3.5 mph - N/A   Overcast
4:15 AM 46.4 °F 45.2 °F 44.6 °F 93% 30.01 in 10.0 mi West 3.5 mph - N/A   Overcast
4:35 AM 46.4 °F - 44.6 °F 93% 30.02 in 10.0 mi Calm Calm - N/A   Overcast
4:55 AM 44.6 °F - 44.6 °F 100% 30.02 in 10.0 mi Calm Calm - N/A   Overcast
5:15 AM 44.6 °F 43.1 °F 44.6 °F 100% 30.03 in 10.0 mi SW 3.5 mph - N/A   Overcast
5:35 AM 44.6 °F 43.1 °F 44.6 °F 100% 30.04 in 10.0 mi WSW 3.5 mph - N/A   Overcast
5:55 AM 44.6 °F - 44.6 °F 100% 30.05 in 10.0 mi Calm Calm - N/A   Overcast
6:15 AM 44.6 °F 42.2 °F 44.6 °F 100% 30.06 in 10.0 mi West 4.6 mph - N/A   Overcast
6:55 AM 44.6 °F 40.7 °F 44.6 °F 100% 30.08 in 10.0 mi West 6.9 mph - N/A   Overcast
7:15 AM 44.6 °F 42.2 °F 44.6 °F 100% 30.10 in 10.0 mi West 4.6 mph - N/A   Overcast
7:35 AM 44.6 °F - 44.6 °F 100% 30.09 in 10.0 mi Calm Calm - N/A   Overcast
7:55 AM 44.6 °F - 44.6 °F 100% 30.10 in 10.0 mi Calm Calm - N/A   Overcast
8:15 AM 44.6 °F 43.1 °F 44.6 °F 100% 30.11 in 7.0 mi WNW 3.5 mph - N/A   Overcast
8:35 AM 44.6 °F - 44.6 °F 100% 30.12 in 7.0 mi Calm Calm - N/A   Overcast
8:55 AM 44.6 °F - 44.6 °F 100% 30.12 in 5.0 mi Calm Calm - N/A   Overcast
9:15 AM 44.6 °F 43.1 °F 44.6 °F 100% 30.12 in 7.0 mi NNW 3.5 mph - N/A   Overcast
9:35 AM 44.6 °F - 44.6 °F 100% 30.13 in 10.0 mi Calm Calm - N/A   Overcast
9:55 AM 44.6 °F - 44.6 °F 100% 30.14 in 10.0 mi Calm Calm - N/A   Overcast
10:37 AM 46.4 °F - 44.6 °F 93% 30.16 in 10.0 mi Calm Calm - N/A   Overcast
11:17 AM 51.8 °F - 44.6 °F 76% 30.14 in 10.0 mi Calm Calm - N/A   Overcast
11:38 AM 50.0 °F - 44.6 °F 82% 30.15 in 10.0 mi Calm Calm - N/A   Overcast
12:38 PM 53.6 °F - 44.6 °F 72% 30.13 in 10.0 mi Calm Calm - N/A   Scattered Clouds
12:57 PM 53.6 °F - 44.6 °F 72% 30.13 in 10.0 mi Calm Calm - N/A   Scattered Clouds
1:17 PM 55.4 °F - 44.6 °F 67% 30.11 in 10.0 mi NNE 5.8 mph - N/A   Scattered Clouds
2:37 PM 57.2 °F - 44.6 °F 63% 30.13 in 10.0 mi Calm Calm - N/A   Scattered Clouds
2:55 PM 55.4 °F - 44.6 °F 67% 30.12 in 10.0 mi NNE 3.5 mph - N/A   Scattered Clouds
3:15 PM 53.6 °F - 42.8 °F 67% 30.13 in 10.0 mi NNE 3.5 mph - N/A   Scattered Clouds
3:35 PM 53.6 °F - 42.8 °F 67% 30.15 in 10.0 mi Calm Calm - N/A   Scattered Clouds
3:55 PM 51.8 °F - 42.8 °F 71% 30.15 in 10.0 mi Calm Calm - N/A   Scattered Clouds
4:15 PM 51.8 °F - 42.8 °F 71% 30.15 in 10.0 mi Calm Calm - N/A   Clear
4:35 PM 48.2 °F - 42.8 °F 82% 30.15 in 10.0 mi Calm Calm - N/A   Mostly Cloudy
4:55 PM 48.2 °F - 42.8 °F 82% 30.15 in 10.0 mi Calm Calm - N/A   Mostly Cloudy
5:15 PM 48.2 °F - 42.8 °F 82% 30.15 in 10.0 mi Calm Calm - N/A   Mostly Cloudy
6:20 PM 46.4 °F - 41.0 °F 81% 30.14 in 10.0 mi Calm Calm - N/A   Clear
7:37 PM 46.4 °F - 39.2 °F 76% 30.19 in 10.0 mi Calm Calm - N/A   Overcast
8:17 PM 44.6 °F 43.1 °F 39.2 °F 81% 30.18 in 10.0 mi NE 3.5 mph - N/A   Scattered Clouds
8:37 PM 44.6 °F 43.1 °F 39.2 °F 81% 30.21 in 10.0 mi NE 3.5 mph - N/A   Mostly Cloudy
8:59 PM 44.6 °F - 39.2 °F 81% 30.21 in 10.0 mi Calm Calm - N/A   Overcast
9:20 PM 44.6 °F 42.2 °F 39.2 °F 81% 30.20 in 10.0 mi ENE 4.6 mph - N/A   Overcast
9:37 PM 44.6 °F - 39.2 °F 81% 30.21 in 10.0 mi Calm Calm - N/A   Overcast
10:17 PM 44.6 °F - 39.2 °F 81% 30.19 in 10.0 mi Calm Calm - N/A   Overcast
10:38 PM 44.6 °F 43.1 °F 39.2 °F 81% 30.20 in 10.0 mi East 3.5 mph - N/A   Overcast
10:57 PM 44.6 °F 43.1 °F 39.2 °F 81% 30.20 in 10.0 mi East 3.5 mph - N/A   Overcast
11:18 PM 44.6 °F 43.1 °F 39.2 °F 81% 30.20 in 10.0 mi NE 3.5 mph - N/A   Overcast
11:38 PM 44.6 °F 43.1 °F 39.2 °F 81% 30.19 in 10.0 mi NNE 3.5 mph - N/A   Overcast